• In Austria
  • List of Countries
  • For 7 days
  • Water Temperature
  • Satellite Maps
  • Weather Map
  • News
  • Weather Widgets
  • user-avatar
    Login

    Hourly Weather Tunceli

    Today, 16 October, Tuesday

    Time Temperature Precipitation Wind Pressure Humidity
    00:00 +19°C° 0 mm 1 mps 675 mmHg 50%
    01:00 +19°C° 0 mm 1 mps 675 mmHg 51%
    02:00 +19°C° 0 mm 1 mps 675 mmHg 51%
    03:00 +18°C° 0 mm 1 mps 675 mmHg 52%
    04:00 +18°C° 0 mm 1 mps 675 mmHg 53%
    05:00 +18°C° 0 mm 1 mps 675 mmHg 54%
    06:00 +16°C° 0 mm 1 mps 675 mmHg 55%
    07:00 +19°C° 0 mm 1 mps 675 mmHg 50%
    08:00 +21°C° 0 mm 1 mps 676 mmHg 44%
    09:00 +23°C° 0 mm 1 mps 676 mmHg 39%
    10:00 +24°C° 0 mm 1 mps 676 mmHg 36%
    11:00 +25°C° 0 mm 1 mps 676 mmHg 33%
    12:00 +26°C° 0 mm 1 mps 676 mmHg 30%
    13:00 +27°C° 0.2 mm 1 mps 676 mmHg 29%
    14:00 +27°C° 0.2 mm 1 mps 676 mmHg 28%
    15:00 +27°C° 0.2 mm 1 mps 676 mmHg 27%
    16:00 +26°C° 0.3 mm 1 mps 675 mmHg 31%
    17:00 +24°C° 0.3 mm 1 mps 675 mmHg 35%
    18:00 +23°C° 0.3 mm 1 mps 674 mmHg 39%
    19:00 +22°C° 0.1 mm 1 mps 674 mmHg 40%
    20:00 +22°C° 0.1 mm 1 mps 674 mmHg 41%
    21:00 +21°C° 0.1 mm 1 mps 674 mmHg 43%
    22:00 +21°C° 0.1 mm 1 mps 674 mmHg 44%
    23:00 +20°C° 0.1 mm 1 mps 674 mmHg 45%

    Tomorrow, 17 October, Wednesday

    Time Temperature Precipitation Wind Pressure Humidity
    00:00 +20°C° 0.1 mm 1 mps 674 mmHg 46%
    01:00 +19°C° 0.1 mm 1 mps 674 mmHg 46%
    02:00 +19°C° 0.1 mm 1 mps 674 mmHg 47%
    03:00 +19°C° 0.1 mm 1 mps 674 mmHg 47%
    04:00 +17°C° 0.1 mm 2 mps 674 mmHg 48%
    05:00 +17°C° 0.1 mm 2 mps 674 mmHg 49%
    06:00 +17°C° 0.1 mm 2 mps 674 mmHg 50%
    07:00 +18°C° 0 mm 2 mps 674 mmHg 45%
    08:00 +20°C° 0 mm 2 mps 675 mmHg 41%
    09:00 +21°C° 0 mm 2 mps 675 mmHg 37%
    10:00 +24°C° 0 mm 2 mps 675 mmHg 34%
    11:00 +25°C° 0 mm 2 mps 675 mmHg 31%
    12:00 +26°C° 0 mm 3 mps 675 mmHg 28%
    13:00 +26°C° 0.2 mm 3 mps 675 mmHg 28%
    14:00 +26°C° 0.2 mm 3 mps 675 mmHg 28%
    15:00 +27°C° 0.2 mm 4 mps 674 mmHg 28%
    16:00 +25°C° 0.2 mm 3 mps 674 mmHg 33%
    17:00 +24°C° 0.2 mm 2 mps 674 mmHg 37%
    18:00 +22°C° 0.2 mm 1 mps 673 mmHg 42%
    19:00 +22°C° 0.1 mm 1 mps 674 mmHg 44%
    20:00 +21°C° 0.1 mm 1 mps 674 mmHg 46%
    21:00 +20°C° 0.1 mm 1 mps 674 mmHg 47%
    22:00 +20°C° 0.1 mm 1 mps 674 mmHg 49%
    23:00 +19°C° 0.1 mm 1 mps 674 mmHg 50%

    Day after tomorrow, 18 October, Thursday

    Time Temperature Precipitation Wind Pressure Humidity
    00:00 +19°C° 0.1 mm 1 mps 674 mmHg 51%
    01:00 +19°C° 0.1 mm 1 mps 674 mmHg 53%
    02:00 +18°C° 0.1 mm 1 mps 674 mmHg 54%
    03:00 +18°C° 0.1 mm 1 mps 674 mmHg 55%
    04:00 +18°C° 0 mm 1 mps 674 mmHg 55%
    05:00 +16°C° 0 mm 1 mps 674 mmHg 56%
    06:00 +16°C° 0 mm 1 mps 674 mmHg 57%
    07:00 +19°C° 0 mm 1 mps 674 mmHg 51%
    08:00 +20°C° 0 mm 1 mps 675 mmHg 46%
    09:00 +22°C° 0 mm 1 mps 675 mmHg 40%
    10:00 +23°C° 0 mm 2 mps 675 mmHg 37%
    11:00 +25°C° 0 mm 2 mps 675 mmHg 33%
    12:00 +26°C° 0 mm 2 mps 675 mmHg 29%
    13:00 +26°C° 0.1 mm 2 mps 675 mmHg 28%
    14:00 +27°C° 0.1 mm 2 mps 675 mmHg 27%
    15:00 +27°C° 0.1 mm 2 mps 674 mmHg 26%
    16:00 +25°C° 0.2 mm 2 mps 674 mmHg 30%
    17:00 +24°C° 0.2 mm 1 mps 674 mmHg 34%
    18:00 +22°C° 0.2 mm 1 mps 674 mmHg 38%
    19:00 +22°C° 0.1 mm 1 mps 674 mmHg 40%
    20:00 +21°C° 0.1 mm 1 mps 674 mmHg 42%
    21:00 +20°C° 0.1 mm 1 mps 674 mmHg 43%
    22:00 +20°C° 0.1 mm 1 mps 674 mmHg 44%
    23:00 +20°C° 0.1 mm 1 mps 674 mmHg 44%

    19 October, Friday

    Time Temperature Precipitation Wind Pressure Humidity
    00:00 +19°C° 0.1 mm 1 mps 674 mmHg 45%
    01:00 +19°C° 0 mm 1 mps 674 mmHg 46%
    02:00 +19°C° 0 mm 1 mps 674 mmHg 46%
    03:00 +18°C° 0 mm 1 mps 674 mmHg 47%
    04:00 +18°C° 0 mm 1 mps 674 mmHg 48%
    05:00 +18°C° 0 mm 1 mps 674 mmHg 48%
    06:00 +16°C° 0 mm 1 mps 674 mmHg 49%
    07:00 +19°C° 0 mm 1 mps 674 mmHg 44%
    08:00 +21°C° 0 mm 1 mps 675 mmHg 40%
    09:00 +23°C° 0 mm 1 mps 675 mmHg 36%
    10:00 +24°C° 0 mm 2 mps 675 mmHg 34%
    11:00 +25°C° 0 mm 2 mps 675 mmHg 31%
    12:00 +26°C° 0 mm 2 mps 675 mmHg 29%
    13:00 +26°C° 0.2 mm 2 mps 675 mmHg 29%
    14:00 +26°C° 0.2 mm 3 mps 675 mmHg 29%
    15:00 +27°C° 0.2 mm 3 mps 674 mmHg 28%
    16:00 +25°C° 0.3 mm 2 mps 674 mmHg 33%
    17:00 +24°C° 0.3 mm 2 mps 674 mmHg 37%
    18:00 +22°C° 0.3 mm 1 mps 673 mmHg 42%
    19:00 +22°C° 0.2 mm 1 mps 673 mmHg 43%
    20:00 +21°C° 0.2 mm 1 mps 674 mmHg 45%
    21:00 +20°C° 0.2 mm 1 mps 674 mmHg 47%
    22:00 +20°C° 0.2 mm 1 mps 674 mmHg 48%
    23:00 +20°C° 0.2 mm 1 mps 674 mmHg 50%

    20 October, Saturday

    Time Temperature Precipitation Wind Pressure Humidity
    00:00 +19°C° 0.2 mm 1 mps 673 mmHg 51%
    01:00 +19°C° 0.2 mm 1 mps 673 mmHg 52%
    02:00 +18°C° 0.2 mm 1 mps 673 mmHg 53%
    03:00 +18°C° 0.2 mm 1 mps 673 mmHg 55%
    04:00 +18°C° 0.1 mm 1 mps 673 mmHg 56%
    05:00 +16°C° 0.1 mm 1 mps 673 mmHg 58%
    06:00 +16°C° 0.1 mm 1 mps 673 mmHg 59%
    07:00 +18°C° 0.1 mm 1 mps 673 mmHg 55%
    08:00 +20°C° 0.1 mm 1 mps 674 mmHg 50%
    09:00 +21°C° 0.1 mm 1 mps 674 mmHg 46%
    10:00 +22°C° 0.1 mm 1 mps 674 mmHg 43%
    11:00 +23°C° 0.1 mm 2 mps 674 mmHg 40%
    12:00 +24°C° 0.1 mm 2 mps 674 mmHg 37%
    13:00 +24°C° 0.2 mm 2 mps 674 mmHg 36%
    14:00 +25°C° 0.2 mm 2 mps 674 mmHg 35%
    15:00 +25°C° 0.2 mm 3 mps 673 mmHg 34%
    16:00 +24°C° 0.3 mm 2 mps 673 mmHg 38%
    17:00 +21°C° 0.3 mm 2 mps 673 mmHg 43%
    18:00 +21°C° 0.3 mm 1 mps 673 mmHg 47%
    19:00 +20°C° 0.4 mm 1 mps 673 mmHg 51%
    20:00 +20°C° 0.4 mm 1 mps 673 mmHg 54%
    21:00 +19°C° 0.4 mm 1 mps 673 mmHg 58%
    22:00 +18°C° 0.1 mm 1 mps 672 mmHg 59%
    23:00 +18°C° 0.1 mm 1 mps 672 mmHg 61%

    21 October, Sunday

    Time Temperature Precipitation Wind Pressure Humidity
    00:00 +16°C° 0.1 mm 1 mps 672 mmHg 63%
    01:00 +16°C° 0 mm 1 mps 672 mmHg 65%
    02:00 +16°C° 0 mm 1 mps 672 mmHg 66%
    03:00 +15°C° 0 mm 1 mps 672 mmHg 67%
    04:00 +15°C° 0 mm 1 mps 672 mmHg 68%
    05:00 +15°C° 0 mm 1 mps 672 mmHg 70%
    06:00 +15°C° 0 mm 1 mps 672 mmHg 71%
    07:00 +16°C° 0 mm 1 mps 672 mmHg 66%
    08:00 +18°C° 0 mm 1 mps 673 mmHg 61%
    09:00 +19°C° 0 mm 1 mps 673 mmHg 56%
    10:00 +20°C° 0.1 mm 1 mps 673 mmHg 52%
    11:00 +21°C° 0.1 mm 1 mps 673 mmHg 49%
    12:00 +21°C° 0.1 mm 2 mps 673 mmHg 45%
    13:00 +23°C° 0.3 mm 2 mps 673 mmHg 44%
    14:00 +23°C° 0.3 mm 2 mps 673 mmHg 43%
    15:00 +23°C° 0.3 mm 2 mps 672 mmHg 42%
    16:00 +21°C° 0.5 mm 2 mps 672 mmHg 47%
    17:00 +21°C° 0.5 mm 1 mps 672 mmHg 51%
    18:00 +20°C° 0.5 mm 1 mps 672 mmHg 56%
    19:00 +19°C° 0.5 mm 1 mps 672 mmHg 58%
    20:00 +19°C° 0.5 mm 1 mps 672 mmHg 60%
    21:00 +18°C° 0.5 mm 1 mps 672 mmHg 62%
    22:00 +18°C° 0.2 mm 1 mps 672 mmHg 63%
    23:00 +16°C° 0.2 mm 1 mps 672 mmHg 65%
    Show more